Weather History for KTTS - August, 2013

Change the Weather History Date:

Friday, August 9, 2013

  Actual Average Record
Temperature  
Mean Temperature 83 °F -  
Max Temperature 90 °F 86 °F 93 °F (2007)
Min Temperature 77 °F 71 °F 71 °F (2000)
Cooling Degree Days 18    
Growing Degree Days 33 (Base 50)    
Moisture  
Dew Point 75 °F    
Average Humidity 79    
Maximum Humidity 94    
Minimum Humidity 60    
Precipitation  
Precipitation 0.00 in - - ()
Sea Level Pressure  
Sea Level Pressure 30.06 in    
Wind  
Wind Speed 6 mph (ESE)    
Max Wind Speed 13 mph    
Max Gust Speed 21 mph    
Visibility 10 miles    
Events      
Averages and records for this station are not official NWS values.
T = Trace of Precipitation, MM = Missing Value Source: NWS Daily Summary

Daily Weather History Graph

Daily Weather History Graph

Search for Another Location

Airport or City:

Trip Planner

Search our weather history database for the weather conditions in past years. The results will help you decide how hot, cold, wet, or windy it might be!

Date:

Astronomy

Aug. 09, 2013 Rise Set
Actual Time 6:48 AM EDT 8:07 PM EDT
Civil Twilight 6:23 AM EDT 8:32 PM EDT
Nautical Twilight 5:53 AM EDT 9:01 PM EDT
Astronomical Twilight 5:23 AM EDT 9:32 PM EDT
Moon 9:14 AM EDT (8/9) 9:37 PM EDT (8/9)
Length of Visible Light 14h 08m
Length of Day
13h 18m
Waxing Crescent, 7% of the Moon is Illuminated
Aug 9
Waxing Crescent
Aug 14
First Quarter
Aug 20
Full
Aug 28
Last Quarter
Sep 5
New

Hourly Weather History & Observations

Time (EDT) Temp. Heat Index Dew Point Humidity Pressure Visibility Wind Dir Wind Speed Gust Speed Precip Events Conditions
12:58 AM 78.3 °F - 75.9 °F 92% 30.06 in 10.0 mi ESE 2.3 mph - N/A   Clear
1:58 AM 78.3 °F - 76.3 °F 94% 30.04 in 10.0 mi ESE 3.5 mph - N/A   Clear
2:58 AM 77.5 °F - 75.7 °F 94% 30.02 in 10.0 mi ESE 5.8 mph - N/A   Clear
3:58 AM 78.8 °F - 76.5 °F 92% 30.01 in 10.0 mi ESE 3.5 mph - N/A   Clear
4:58 AM 78.8 °F - 75.7 °F 90% 30.01 in 10.0 mi ESE 5.8 mph - N/A   Clear
5:58 AM 78.8 °F - 76.3 °F 92% 30.01 in 10.0 mi ESE 4.6 mph - N/A   Clear
8:58 AM 83.8 °F 92.1 °F 75.7 °F 76% 30.05 in 10.0 mi SE 8.1 mph - N/A   Partly Cloudy
10:55 AM 86.0 °F 95.1 °F 75.2 °F 70% 30.07 in 10.0 mi ESE 9.2 mph - N/A   Partly Cloudy
11:58 AM 88.2 °F 96.9 °F 74.3 °F 63% 30.08 in 10.0 mi SSE 11.5 mph - N/A   Partly Cloudy
12:58 PM 89.6 °F 99.3 °F 74.3 °F 61% 30.07 in 10.0 mi East 9.2 mph - N/A   Scattered Clouds
1:58 PM 89.2 °F 97.9 °F 73.8 °F 60% 30.07 in 10.0 mi SE 9.2 mph - N/A   Scattered Clouds
2:58 PM 89.6 °F 100.4 °F 75.4 °F 63% 30.07 in 10.0 mi ESE 11.5 mph 20.7 mph N/A   Clear
3:58 PM 88.9 °F 99.2 °F 75.4 °F 64% 30.06 in 10.0 mi SE 12.7 mph 18.4 mph N/A   Partly Cloudy
4:58 PM 87.6 °F 97.1 °F 74.8 °F 66% 30.05 in 10.0 mi SE 10.4 mph - N/A   Partly Cloudy
5:58 PM 85.8 °F 93.8 °F 74.3 °F 68% 30.04 in 10.0 mi SE 12.7 mph 17.3 mph N/A   Partly Cloudy
6:58 PM 84.7 °F 92.1 °F 74.1 °F 70% 30.05 in 10.0 mi SE 6.9 mph - N/A   Clear
7:58 PM 82.4 °F 89.2 °F 74.8 °F 78% 30.07 in 10.0 mi SE 5.8 mph - N/A   Clear
8:58 PM 81.0 °F 87.1 °F 75.7 °F 84% 30.07 in 10.0 mi SE 5.8 mph - N/A   Clear
9:58 PM 78.6 °F - 75.6 °F 90% 30.08 in 10.0 mi ESE 3.5 mph - N/A   Partly Cloudy
10:58 PM 78.6 °F - 75.7 °F 91% 30.11 in 10.0 mi SE 4.6 mph - N/A   Clear
11:58 PM 78.6 °F - 76.1 °F 92% 30.10 in 10.0 mi SE 5.8 mph - N/A   Clear